ABS-2

Last updated on Sun Apr 12 2026 00:02:53 GMT+0000 (Coordinated Universal Time)

1 39508U 14006A 26101.47406078 -.00000085 00000+0 00000+0 0 9994 2 39508 0.0620 79.6458 0003106 312.3562 53.2832 1.00272345 44607
UTC large
Height (km)
Speed (km/s)
/
Latitude / Longitude
Inclination (degrees)
Orbital Period (minutes)
Azimuth
Elevation
Range (km)
Doppler Factor

Next 0 passes for location: London (51.5072 / 0.1276)

Sorry there are no passes over London.
ABS-2